[[{"header":{"parameterUnit":"m.s-1","parameterCategory":2,"la1":30.2991,"la2":30.254,"lo1":-89.0895,"lo2":-89.0444,"dy":0.0017,"dx":0.0017,"nx":28,"ny":28,"refTime":"2024-04-19T03:00:00:Z","depth":"0","parameterNumber":2,"parameterNumberName":"U-component_of_CURRENTS"},"data":[0,0,0,0,0,0,0,0,0,0,0,0,0,0,0,0,0,0,0,0,0,0,0,0,0,0,0,0,0,0,0,0,0,0,0,0,0,0,0,0,0,0,0,0,0,0,0,0,0,0,0,0,0,0,0,0,0,0,0.2571,0.2571,0,0.2476,0.2474,0.2473,0.2326,0.2324,0.2322,0.2321,0.2062,0.2057,0.2052,0,0,0,0,0,0,0,0,0,0,0,0,0,0.2484,0.2486,0.2571,0.2571,0.257,0.2476,0.2474,0.2472,0.2327,0.2324,0.2322,0.232,0.2063,0.2057,0.2051,0,0,0,0,0,0,0,0,0,0,0,0,0,0.2461,0.2487,0.2571,0.2492,0.2485,0.2477,0.2474,0.2472,0.2327,0.2324,0.2321,0.2319,0.2065,0.2058,0.205,0.206,0,0,0.2027,0.2024,0,0,0,0,0,0,0,0,0.2463,0.2464,0.2504,0.2498,0.2489,0.2417,0.2349,0.2329,0.2328,0.2379,0.2321,0.2317,0.2173,0.2156,0.2136,0.2048,0.2037,0.2026,0.2022,0.2018,0.2016,0,0,0,0,0,0,0,0.2465,0.2466,0.2525,0.2504,0.2495,0.2413,0.2407,0.2344,0.2284,0.2374,0.2365,0.2368,0.2166,0.2144,0.2128,0.2033,0.2026,0.202,0.2015,0.2012,0.197,0.1973,0,0,0,0,0,0,0.2504,0.247,0.2529,0.2523,0.2478,0.2418,0.2411,0.2437,0.2287,0.2266,0.237,0.2362,0.2158,0.2137,0.2118,0.2143,0.2018,0.2011,0.2007,0.1966,0.1971,0.1974,0,0,0,0,0,0,0.2503,0.2511,0.2533,0.2498,0.2496,0.2424,0.2453,0.2437,0.2419,0.2288,0.2261,0.2372,0.2155,0.2129,0.2093,0.213,0.2008,0.2001,0.1962,0.1968,0.1972,0.2177,0,0,0,0,0,0,0.2501,0.2512,0.2532,0.2502,0.25,0.2555,0.2456,0.2437,0.2429,0.2416,0.2281,0.2253,0.2151,0.2106,0.2085,0.2118,0.1995,0.1958,0.1965,0.1971,0.2166,0.2189,0.2208,0,0,0,0,0,0.2499,0.2529,0.2534,0.2541,0.2535,0.2558,0.255,0.248,0.2432,0.2448,0.2363,0.2257,0.2132,0.2103,0.2078,0.2109,0.1955,0.1963,0.197,0.2157,0.2184,0.2208,0,0,0,0,0,0,0.2487,0.2518,0.2522,0.2558,0.2579,0.2537,0.253,0.2507,0.2454,0.2429,0.2299,0.2269,0.2256,0.2169,0.214,0.2122,0.2028,0.2031,0.2178,0.2203,0.2223,0.2222,0.1988,0,0,0,0,0,0.251,0.2545,0.257,0.2602,0.2615,0.2587,0.2582,0.2559,0.2517,0.2489,0.2404,0.2319,0.2273,0.2227,0.217,0.2155,0.2105,0.2163,0.2184,0.2203,0.219,0.2194,0.2214,0.2,0.2,0.2,0,0,0.2514,0.2536,0.2554,0.2604,0.2598,0.2622,0.2573,0.2592,0.2603,0.2471,0.2443,0.2396,0.2293,0.2282,0.2267,0.2206,0.2247,0.2213,0.2229,0.2205,0.2204,0.2224,0.2243,0.2005,0.2004,0.2004,0,0,0.2537,0.2569,0.2604,0.2629,0.2661,0.2656,0.268,0.2674,0.2661,0.267,0.258,0.2568,0.2476,0.2421,0.2378,0.2486,0.2374,0.2469,0.2548,0.2555,0.2572,0.2586,0.2587,0.2599,0.2461,0.2462,0.2462,0,0.2551,0.2592,0.2618,0.2652,0.2665,0.2682,0.2715,0.2722,0.2706,0.2706,0.2683,0.2613,0.2541,0.2521,0.2562,0.2529,0.2511,0.2457,0.2582,0.2594,0.2605,0.2602,0.2613,0.2472,0.2471,0.247,0.2469,0,0.2598,0.2624,0.2644,0.2697,0.2723,0.2761,0.279,0.2815,0.2816,0.2817,0.2838,0.2784,0.2724,0.2733,0.2672,0.2716,0.2675,0.2626,0.2516,0.2639,0.2628,0.2636,0.2488,0.2484,0.2481,0.2478,0,0,0.2671,0.2678,0.269,0.2696,0.275,0.2776,0.282,0.2867,0.2878,0.2914,0.2923,0.2922,0.2906,0.2859,0.281,0.2827,0.2918,0.2767,0.2762,0.2765,0.2938,0.2803,0.2797,0.2894,0.2896,0.2897,0.2913,0,0.2711,0.2749,0.2752,0.2788,0.2811,0.283,0.2864,0.2906,0.2931,0.2947,0.2962,0.2949,0.2949,0.2925,0.2962,0.2902,0.2942,0.2918,0.2817,0.2814,0.2676,0.2802,0.2569,0.2553,0.2919,0.292,0.2921,0,0.2773,0.2784,0.2814,0.2815,0.283,0.285,0.2894,0.2925,0.2965,0.298,0.3007,0.2998,0.3022,0.3007,0.3028,0.3013,0.3002,0.2985,0.2983,0.2777,0.2692,0.2481,0.2551,0.2328,0.2932,0.2931,0.293,0,0.2813,0.283,0.2843,0.2851,0.2868,0.2876,0.2888,0.2931,0.2947,0.298,0.2984,0.3031,0.3013,0.3048,0.3027,0.3029,0.3041,0.3021,0.2907,0.2897,0.2632,0.2594,0.2458,0.3067,0.3067,0.3067,0.3067,0,0.2865,0.288,0.2847,0.2862,0.2885,0.2881,0.2905,0.293,0.2935,0.2943,0.2986,0.2986,0.3025,0.3031,0.3042,0.2986,0.3054,0.2936,0.2896,0.2701,0.2671,0.2404,0.2362,0.3068,0.3068,0.3067,0.3067,0,0.2924,0.29,0.2914,0.2905,0.2902,0.2918,0.2902,0.2917,0.2913,0.2913,0.2916,0.2945,0.2939,0.2971,0.2982,0.2955,0.2803,0.2904,0.2669,0.2601,0.2268,0.2247,0.2138,0.2111,0.2784,0.2781,0.2778,0,0.2953,0.296,0.2953,0.296,0.2952,0.295,0.2957,0.2927,0.2916,0.2881,0.2878,0.2863,0.2855,0.2821,0.2758,0.2737,0.2668,0.2494,0.2457,0.2221,0.2171,0.2194,0.2185,0.2212,0.2205,0.2199,0.2194,0,0.3018,0.3011,0.3029,0.3028,0.3019,0.3009,0.2982,0.2954,0.2901,0.2856,0.2781,0.2755,0.2685,0.2526,0.2472,0.2429,0.2284,0.2372,0.2181,0.1758,0.172,0.168,0.2241,0.2142,0.2147,0.2151,0.2154,0.2156,0.3078,0.3094,0.3093,0.3095,0.3087,0.3046,0.2999,0.2926,0.2845,0.2671,0.2674,0.2491,0.2259,0.2138,0.2087,0.1712,0.1957,0.1554,0.157,0.1632,0.153,0.1979,0.1796,0.1799,0.1802,0.1804,0.1806,0,0.3136,0.314,0.315,0.3128,0.3105,0.3083,0.3004,0.2881,0.2725,0.251,0.2361,0.1938,0.1678,0.1465,0.1063,0.088,0.0959,0.0791,0.0734,0.0792,0.1176,0.1063,0.0643,0.0644,0.0644,0.0644,0.0644,0.0645,0.3178,0.3185,0.3163,0.3125,0.3102,0.2982,0.2907,0.2699,0.2489,0.2023,0.1671,0.1492,0.1085,0.0504,0.0088,0.0093,0.0096,0.0074,0.0226,0.0375,0.0446,0.0514,0.0391,-0.0162,-0.0163,-0.0237,-0.0239,-0.024]},{"header":{"parameterUnit":"m.s-1","parameterCategory":2,"la1":30.2991,"la2":30.254,"lo1":-89.0895,"lo2":-89.0444,"dy":0.0017,"dx":0.0017,"nx":28,"ny":28,"refTime":"2024-04-19T03:00:00:Z","depth":"0","parameterNumber":3,"parameterNumberName":"V-component_of_CURRENTS"},"data":[0,0,0,0,0,0,0,0,0,0,0,0,0,0,0,0,0,0,0,0,0,0,0,0,0,0,0,0,0,0,0,0,0,0,0,0,0,0,0,0,0,0,0,0,0,0,0,0,0,0,0,0,0,0,0,0,0,0,0.0222,0.0222,0,0.0297,0.0298,0.0299,0.0374,0.0374,0.0375,0.0376,0.0329,0.0327,0.0326,0,0,0,0,0,0,0,0,0,0,0,0,0,0.0142,0.0144,0.0222,0.0222,0.0223,0.0297,0.0298,0.03,0.0374,0.0374,0.0375,0.0376,0.033,0.0328,0.0325,0,0,0,0,0,0,0,0,0,0,0,0,0,0.0197,0.0144,0.0222,0.0266,0.0271,0.0296,0.0298,0.03,0.0374,0.0374,0.0375,0.0376,0.0331,0.0328,0.0325,0.0289,0,0,0.0317,0.0316,0,0,0,0,0,0,0,0,0.0193,0.02,0.0259,0.0263,0.0268,0.0324,0.0253,0.0289,0.0373,0.0338,0.0376,0.0377,0.0313,0.0312,0.0331,0.0287,0.0285,0.0317,0.0315,0.0314,0.0313,0,0,0,0,0,0,0,0.019,0.0197,0.0255,0.0259,0.0265,0.0282,0.0291,0.0261,0.032,0.0342,0.0346,0.0348,0.0315,0.0333,0.033,0.0284,0.0317,0.0314,0.0312,0.0311,0.025,0.025,0,0,0,0,0,0,0.0172,0.0193,0.0253,0.0257,0.0228,0.0282,0.0293,0.0308,0.0323,0.0326,0.0347,0.0351,0.0338,0.0333,0.0328,0.0302,0.0314,0.0311,0.031,0.025,0.025,0.025,0,0,0,0,0,0,0.017,0.0177,0.025,0.0223,0.0233,0.0282,0.0299,0.0309,0.0326,0.0328,0.033,0.0353,0.0338,0.0332,0.032,0.03,0.031,0.0307,0.025,0.025,0.025,0.0239,0,0,0,0,0,0,0.0168,0.0176,0.0184,0.0222,0.0234,0.0252,0.0298,0.0309,0.0324,0.033,0.0333,0.0331,0.0339,0.0325,0.0318,0.0296,0.0305,0.025,0.025,0.025,0.0239,0.0238,0.0238,0,0,0,0,0,0.0165,0.0182,0.0184,0.0191,0.0243,0.025,0.0258,0.0298,0.0323,0.032,0.0345,0.0331,0.032,0.0323,0.0314,0.0292,0.025,0.025,0.025,0.0239,0.0239,0.0238,0,0,0,0,0,0,0.019,0.0192,0.0195,0.0223,0.0222,0.0261,0.0269,0.0288,0.0309,0.0316,0.0328,0.0327,0.0313,0.0303,0.0306,0.0277,0.0282,0.028,0.0277,0.0276,0.0275,0.026,0.0303,0,0,0,0,0,0.0184,0.0181,0.0188,0.021,0.0201,0.0227,0.0238,0.0256,0.0277,0.0289,0.0293,0.03,0.0305,0.0293,0.0291,0.0261,0.0266,0.0243,0.0243,0.0242,0.0227,0.0243,0.0242,0.025,0.025,0.025,0,0,0.0211,0.0203,0.0211,0.0209,0.0216,0.0207,0.0238,0.0243,0.0244,0.0273,0.0277,0.0292,0.03,0.0291,0.028,0.0277,0.0244,0.0242,0.0242,0.0226,0.0243,0.0242,0.0242,0.025,0.025,0.025,0,0,0.024,0.0236,0.0231,0.0211,0.0193,0.0196,0.0188,0.0203,0.0214,0.021,0.0249,0.0256,0.0242,0.026,0.0265,0.025,0.0247,0.0244,0.0215,0.0232,0.0231,0.0231,0.0242,0.0242,0.0235,0.0235,0.0235,0,0.0268,0.0264,0.0235,0.021,0.02,0.0184,0.0179,0.0176,0.0191,0.0199,0.0202,0.0231,0.0229,0.0242,0.0245,0.0245,0.0256,0.0218,0.0231,0.023,0.023,0.0241,0.0242,0.0235,0.0235,0.0235,0.0235,0,0.0279,0.027,0.0262,0.0216,0.0197,0.0187,0.0158,0.0147,0.0148,0.0158,0.0164,0.018,0.0201,0.0198,0.0212,0.0211,0.0221,0.0236,0.0231,0.0228,0.0241,0.0242,0.0234,0.0234,0.0234,0.0234,0,0,0.034,0.0287,0.0279,0.0263,0.0197,0.0192,0.0158,0.0143,0.0146,0.0133,0.0152,0.0151,0.0164,0.017,0.0189,0.0188,0.0195,0.0201,0.0202,0.0209,0.023,0.026,0.0264,0.0217,0.0217,0.0217,0.0242,0,0.0355,0.0338,0.0294,0.0272,0.0254,0.0207,0.0182,0.0159,0.0143,0.0146,0.0146,0.0163,0.0151,0.017,0.0164,0.0199,0.0196,0.0187,0.0234,0.0234,0.0259,0.0265,0.0335,0.0365,0.0243,0.0243,0.0243,0,0.0346,0.0341,0.0337,0.0299,0.0287,0.027,0.0232,0.0213,0.0186,0.0173,0.0167,0.0173,0.0172,0.0167,0.0183,0.018,0.0192,0.0206,0.0208,0.0235,0.0266,0.0348,0.0371,0.0434,0.0245,0.0245,0.0244,0,0.0369,0.0351,0.036,0.0343,0.0303,0.0298,0.028,0.0236,0.0221,0.0201,0.0188,0.0188,0.0194,0.0202,0.0205,0.0203,0.0225,0.0238,0.027,0.0273,0.0338,0.0347,0.0424,0.0241,0.0241,0.0241,0.0241,0,0.036,0.0357,0.0385,0.0376,0.0387,0.0345,0.0338,0.0304,0.0275,0.0259,0.0217,0.02,0.02,0.0207,0.0214,0.0241,0.0234,0.026,0.0281,0.0337,0.0345,0.0408,0.0421,0.0242,0.0241,0.0241,0.0241,0,0.0333,0.0355,0.036,0.0375,0.0385,0.0387,0.0366,0.0356,0.0316,0.0295,0.0288,0.0225,0.0221,0.0224,0.0246,0.026,0.0335,0.0297,0.0356,0.0383,0.048,0.0489,0.0549,0.0588,0.0348,0.0349,0.0349,0,0.0315,0.0323,0.0366,0.0379,0.0383,0.0397,0.0392,0.0372,0.0356,0.0302,0.0292,0.0272,0.0249,0.0278,0.032,0.036,0.037,0.0429,0.0434,0.0491,0.0518,0.0511,0.0539,0.052,0.0522,0.0524,0.0525,0,0.0277,0.0299,0.0312,0.0347,0.0366,0.0385,0.039,0.0397,0.0369,0.0367,0.0343,0.0333,0.0333,0.0402,0.0435,0.045,0.0503,0.0465,0.052,0.0649,0.0652,0.0699,0.0488,0.054,0.0539,0.0538,0.0537,0.0536,0.0249,0.0251,0.0277,0.03,0.0329,0.0356,0.038,0.0404,0.0425,0.0439,0.0421,0.0447,0.0508,0.0566,0.0568,0.0667,0.0617,0.0709,0.0712,0.0697,0.0747,0.0558,0.0636,0.0635,0.0635,0.0634,0.0633,0,0.0201,0.0206,0.0224,0.0258,0.0281,0.0313,0.0357,0.0394,0.0456,0.0507,0.0542,0.0659,0.0756,0.0782,0.0903,0.0937,0.0923,0.094,0.0963,0.0976,0.0822,0.0844,0.0977,0.0977,0.0977,0.0977,0.0977,0.0977,0.0174,0.0166,0.0175,0.0202,0.0238,0.0294,0.0336,0.0408,0.047,0.0588,0.0681,0.0722,0.0797,0.1039,0.1145,0.114,0.1175,0.1166,0.1153,0.107,0.1049,0.1029,0.1054,0.123,0.123,0.1336,0.1337,0.1338]}],[{"header":{"parameterUnit":"m.s-1","parameterCategory":2,"la1":30.2991,"la2":30.254,"lo1":-89.0895,"lo2":-89.0444,"dy":0.0017,"dx":0.0017,"nx":28,"ny":28,"refTime":"2024-04-19T03:00:00:Z","depth":"2","parameterNumber":2,"parameterNumberName":"U-component_of_CURRENTS"},"data":[0,0,0,0,0,0,0,0,0,0,0,0,0,0,0,0,0,0,0,0,0,0,0,0,0,0,0,0,0,0,0,0,0,0,0,0,0,0,0,0,0,0,0,0,0,0,0,0,0,0,0,0,0,0,0,0,0,0,0.1008,0.1008,0,0.0973,0.0973,0.0973,0.0997,0.0998,0.0998,0.0999,0.1149,0.1152,0.1155,0,0,0,0,0,0,0,0,0,0,0,0,0,0.105,0.105,0.1009,0.1008,0.1007,0.0973,0.0973,0.0973,0.0997,0.0998,0.0999,0.0999,0.1148,0.1152,0.1156,0,0,0,0,0,0,0,0,0,0,0,0,0,0.103,0.105,0.1009,0.1011,0.101,0.0973,0.0973,0.0973,0.0997,0.0998,0.0999,0.1,0.1146,0.1151,0.1156,0.1169,0,0,0.1172,0.1174,0,0,0,0,0,0,0,0,0.1031,0.1029,0.1011,0.1011,0.101,0.0986,0.1042,0.1046,0.0997,0.1008,0.0999,0.1,0.1107,0.1116,0.1112,0.1176,0.1183,0.1172,0.1175,0.1178,0.1179,0,0,0,0,0,0,0,0.1033,0.1031,0.1,0.101,0.1009,0.0997,0.0996,0.1043,0.106,0.1007,0.1007,0.0994,0.1109,0.1107,0.1116,0.1185,0.1172,0.1177,0.118,0.1182,0.1278,0.1277,0,0,0,0,0,0,0.1028,0.1032,0.1001,0.0998,0.1017,0.0995,0.0995,0.0997,0.1056,0.1062,0.0994,0.0996,0.1097,0.111,0.1122,0.1163,0.1178,0.1182,0.1185,0.1278,0.1277,0.1277,0,0,0,0,0,0,0.1029,0.1026,0.1002,0.1009,0.1005,0.0994,0.0996,0.0996,0.1005,0.1043,0.1055,0.1003,0.1099,0.1114,0.1152,0.1168,0.1185,0.1189,0.1279,0.1278,0.1277,0.1232,0,0,0,0,0,0,0.1031,0.1027,0.1044,0.101,0.1004,0.1002,0.0994,0.0994,0.0992,0.0995,0.1055,0.1069,0.1101,0.1143,0.1157,0.1176,0.1193,0.1279,0.1278,0.1277,0.1234,0.123,0.1226,0,0,0,0,0,0.1033,0.1052,0.1046,0.1042,0.1023,0.1002,0.1,0.0997,0.0992,0.1007,0.1021,0.1067,0.1147,0.1147,0.1163,0.1184,0.128,0.1279,0.1278,0.1236,0.1231,0.1226,0,0,0,0,0,0,0.1078,0.1054,0.1047,0.1059,0.1039,0.1005,0.1015,0.1,0.1018,0.103,0.106,0.1074,0.1115,0.1148,0.1146,0.1205,0.1223,0.1224,0.1186,0.1182,0.1177,0.1217,0.1198,0,0,0,0,0,0.1092,0.1106,0.1069,0.108,0.1071,0.1041,0.1036,0.103,0.1027,0.1036,0.1066,0.1097,0.1118,0.1148,0.1183,0.1217,0.127,0.124,0.1236,0.1232,0.1273,0.1331,0.1337,0.1273,0.1273,0.1273,0,0,0.1106,0.1098,0.1104,0.1091,0.1076,0.1062,0.1044,0.1041,0.1034,0.1054,0.1075,0.1093,0.1122,0.1152,0.1175,0.1186,0.1272,0.1231,0.1228,0.1271,0.1331,0.1337,0.1343,0.1272,0.1272,0.1272,0,0,0.1127,0.1139,0.1146,0.1138,0.1119,0.1096,0.1095,0.1069,0.1071,0.1078,0.108,0.1106,0.1146,0.1166,0.1178,0.1177,0.1245,0.1183,0.1205,0.1259,0.1266,0.1273,0.1325,0.1337,0.1184,0.1184,0.1184,0,0.1148,0.1153,0.1145,0.1146,0.1142,0.1109,0.1106,0.1093,0.1084,0.1089,0.1092,0.1129,0.1157,0.1179,0.1173,0.1175,0.1215,0.1217,0.1256,0.1264,0.1272,0.1324,0.1338,0.1182,0.1182,0.1182,0.1182,0,0.1153,0.1173,0.1177,0.1168,0.1164,0.1164,0.1132,0.1134,0.1124,0.111,0.1138,0.1156,0.1189,0.1182,0.1182,0.1236,0.1248,0.124,0.1273,0.1276,0.133,0.1345,0.1178,0.1179,0.118,0.118,0,0,0.1181,0.1178,0.119,0.1194,0.1183,0.1176,0.1168,0.115,0.1153,0.1156,0.1175,0.119,0.1208,0.1225,0.1226,0.127,0.1339,0.1283,0.1287,0.1344,0.1466,0.1285,0.1285,0.1335,0.1337,0.134,0.1473,0,0.1193,0.1193,0.1199,0.1212,0.1205,0.12,0.12,0.1189,0.1179,0.1194,0.1205,0.123,0.1217,0.1241,0.128,0.1327,0.1381,0.1305,0.145,0.1455,0.13,0.1297,0.1108,0.1195,0.1489,0.1491,0.1493,0,0.1216,0.1205,0.121,0.1234,0.1236,0.1246,0.1252,0.1252,0.1254,0.1259,0.1279,0.128,0.1335,0.1328,0.1438,0.1389,0.1445,0.1479,0.1484,0.1355,0.1302,0.1243,0.1212,0.1519,0.1517,0.1515,0.1513,0,0.1235,0.1243,0.1245,0.125,0.1247,0.1269,0.128,0.1279,0.1289,0.1312,0.133,0.1369,0.1413,0.1481,0.1509,0.1502,0.1626,0.1623,0.1519,0.1508,0.1399,0.137,0.1735,0.1735,0.1734,0.1734,0.1734,0,0.1263,0.1283,0.1258,0.1265,0.1282,0.1296,0.1327,0.1338,0.1368,0.1379,0.1383,0.1404,0.1459,0.1497,0.1545,0.155,0.1656,0.1541,0.153,0.1369,0.1338,0.1666,0.1656,0.1739,0.1738,0.1737,0.1736,0,0.1309,0.1291,0.1299,0.1294,0.1296,0.1321,0.1357,0.1363,0.1407,0.1429,0.1444,0.1468,0.1505,0.152,0.1623,0.1575,0.1612,0.1594,0.1382,0.134,0.1467,0.1453,0.153,0.1525,0.152,0.1516,0.1513,0,0.1328,0.1329,0.1318,0.1309,0.1317,0.1338,0.1338,0.1379,0.137,0.1449,0.1446,0.1496,0.1451,0.1486,0.1416,0.1419,0.1543,0.1258,0.1196,0.1464,0.1448,0.1441,0.1433,0.1055,0.1048,0.1043,0.1039,0,0.1359,0.1362,0.135,0.131,0.131,0.13,0.1305,0.1298,0.1333,0.1334,0.1338,0.1329,0.1322,0.117,0.1122,0.1121,0.1224,0.1142,0.1515,0.1088,0.1013,0.0997,0.1007,0.099,0.0995,0.0999,0.1001,0.1003,0.1386,0.1364,0.1325,0.1287,0.1285,0.1233,0.1223,0.1185,0.1148,0.111,0.1148,0.104,0.1013,0.0788,0.078,0.0779,0.0905,0.0866,0.0886,0.0912,0.0784,0.07,0.0598,0.06,0.0602,0.0604,0.0606,0,0.1357,0.1321,0.1287,0.1217,0.1189,0.1213,0.1169,0.1096,0.1004,0.0909,0.0846,0.058,0.0438,0.049,0.0373,0.036,0.041,0.0379,0.0435,0.0479,0.0519,0.0377,0.0081,0.008,0.008,0.0079,0,0,0.1334,0.1256,0.1196,0.1107,0.1099,0.1031,0.1013,0.0887,0.0774,0.0564,0.0422,0.0333,0.0341,0.0134,0.0141,0.0104,0.0305,0.0092,0.0496,0.0599,0.064,0.0763,0.0585,0,0,0,0,0]},{"header":{"parameterUnit":"m.s-1","parameterCategory":2,"la1":30.2991,"la2":30.254,"lo1":-89.0895,"lo2":-89.0444,"dy":0.0017,"dx":0.0017,"nx":28,"ny":28,"refTime":"2024-04-19T03:00:00:Z","depth":"2","parameterNumber":3,"parameterNumberName":"V-component_of_CURRENTS"},"data":[0,0,0,0,0,0,0,0,0,0,0,0,0,0,0,0,0,0,0,0,0,0,0,0,0,0,0,0,0,0,0,0,0,0,0,0,0,0,0,0,0,0,0,0,0,0,0,0,0,0,0,0,0,0,0,0,0,0,0.0345,0.0344,0,0.0294,0.0294,0.0293,0.022,0.0219,0.0218,0.0217,0.0122,0.0121,0.0119,0,0,0,0,0,0,0,0,0,0,0,0,0,0.0373,0.0373,0.0345,0.0344,0.0344,0.0295,0.0294,0.0293,0.0221,0.0219,0.0218,0.0217,0.0123,0.0121,0.0119,0,0,0,0,0,0,0,0,0,0,0,0,0,0.0344,0.0373,0.0345,0.0303,0.0298,0.0295,0.0294,0.0293,0.0221,0.0219,0.0217,0.0216,0.0123,0.0121,0.0119,0.014,0,0,0.0112,0.0111,0,0,0,0,0,0,0,0,0.0346,0.0343,0.0309,0.0306,0.0301,0.0263,0.0269,0.024,0.0221,0.0249,0.0217,0.0215,0.0167,0.0161,0.0155,0.0136,0.0132,0.0112,0.0111,0.011,0.0109,0,0,0,0,0,0,0,0.0348,0.0345,0.0324,0.0309,0.0304,0.0284,0.0278,0.0263,0.0217,0.0247,0.0241,0.0238,0.0164,0.0157,0.0152,0.013,0.0112,0.011,0.0109,0.0108,0.0042,0.0042,0,0,0,0,0,0,0.0359,0.0347,0.0325,0.0322,0.0321,0.0285,0.0279,0.0276,0.0218,0.0208,0.024,0.0235,0.0162,0.0154,0.0148,0.012,0.011,0.0108,0.0107,0.0043,0.0042,0.0042,0,0,0,0,0,0,0.036,0.0358,0.0327,0.0334,0.0329,0.0287,0.0284,0.0276,0.0251,0.0213,0.0202,0.0221,0.016,0.0151,0.0113,0.0118,0.0107,0.0105,0.0043,0.0043,0.0042,0.0096,0,0,0,0,0,0,0.0361,0.0358,0.035,0.0335,0.0329,0.0315,0.0286,0.0276,0.0253,0.0246,0.0195,0.0185,0.0158,0.0116,0.011,0.0114,0.0103,0.0044,0.0043,0.0042,0.0094,0.0097,0.0099,0,0,0,0,0,0.0362,0.0366,0.0351,0.0347,0.0323,0.0315,0.031,0.0273,0.0254,0.0244,0.0203,0.0185,0.0107,0.0114,0.0108,0.0111,0.0044,0.0043,0.0042,0.0093,0.0096,0.0099,0,0,0,0,0,0,0.0384,0.0359,0.0341,0.0339,0.0322,0.0303,0.0286,0.0273,0.0235,0.0218,0.0183,0.0171,0.014,0.0115,0.0125,0.0087,0.0072,0.007,0.0113,0.0115,0.0118,0.0141,0.0101,0,0,0,0,0,0.0385,0.0377,0.0354,0.0354,0.0336,0.0311,0.0299,0.028,0.0252,0.0233,0.0202,0.0163,0.0137,0.0116,0.0088,0.0072,0.0079,0.0066,0.0069,0.0071,0.0083,0.0089,0.0094,0.0039,0.0039,0.0039,0,0,0.04,0.0382,0.038,0.0357,0.0332,0.0325,0.0298,0.0279,0.0279,0.023,0.0206,0.0172,0.0133,0.011,0.0094,0.0086,0.0093,0.007,0.0072,0.0083,0.0088,0.0094,0.0099,0.0038,0.0038,0.0038,0,0,0.0433,0.0398,0.0399,0.0375,0.0341,0.0328,0.0322,0.0294,0.0275,0.0254,0.022,0.0194,0.0145,0.013,0.0113,0.0114,0.0107,0.0091,0.0122,0.0127,0.0133,0.0138,0.0176,0.0184,0.0091,0.0091,0.0091,0,0.0447,0.0443,0.0401,0.0388,0.0369,0.0331,0.0328,0.0314,0.0284,0.0278,0.0245,0.0199,0.0163,0.0159,0.0146,0.0124,0.0128,0.0119,0.0134,0.0138,0.0143,0.018,0.0188,0.0093,0.0093,0.0093,0.0092,0,0.0479,0.0462,0.0455,0.0425,0.0403,0.0391,0.036,0.0347,0.0319,0.031,0.0289,0.0247,0.0218,0.0203,0.0168,0.0178,0.0173,0.0141,0.0136,0.0152,0.019,0.0197,0.0097,0.0096,0.0095,0.0094,0,0,0.052,0.0489,0.0479,0.0466,0.0412,0.0405,0.0395,0.0385,0.0387,0.0356,0.0369,0.0317,0.0291,0.0271,0.0236,0.0236,0.0267,0.0194,0.0193,0.0249,0.0299,0.0307,0.0316,0.0228,0.0229,0.023,0.0324,0,0.0546,0.0564,0.0521,0.0514,0.0507,0.0451,0.0445,0.0428,0.0409,0.0413,0.0388,0.0369,0.0319,0.0294,0.0293,0.0273,0.0284,0.0247,0.026,0.0261,0.028,0.0324,0.0305,0.0387,0.0331,0.0332,0.0333,0,0.0557,0.0574,0.0594,0.0554,0.0539,0.0525,0.0498,0.0481,0.0475,0.0456,0.0448,0.0425,0.043,0.0371,0.0381,0.0353,0.0327,0.0316,0.0319,0.0314,0.0282,0.0354,0.0402,0.0345,0.0344,0.0343,0.0342,0,0.0602,0.0592,0.0622,0.0606,0.0578,0.056,0.0524,0.0498,0.0482,0.0479,0.0477,0.0487,0.0475,0.0465,0.0435,0.0398,0.0459,0.0408,0.0407,0.0409,0.0392,0.039,0.0415,0.0414,0.0414,0.0414,0.0414,0,0.062,0.0623,0.0646,0.0651,0.0663,0.0593,0.0583,0.0551,0.0518,0.0521,0.0488,0.0507,0.0485,0.0512,0.0485,0.0492,0.05,0.0438,0.0435,0.0411,0.0409,0.0357,0.035,0.0418,0.0417,0.0416,0.0415,0,0.0631,0.0656,0.0681,0.0684,0.068,0.067,0.0604,0.0601,0.0543,0.0552,0.0546,0.0533,0.0562,0.0572,0.0578,0.0549,0.0559,0.0548,0.0543,0.0536,0.0498,0.0492,0.0576,0.0577,0.0578,0.0578,0.0579,0,0.0644,0.0668,0.0715,0.0742,0.0733,0.0717,0.0707,0.0631,0.063,0.0576,0.0602,0.0607,0.0652,0.0691,0.0655,0.0668,0.0614,0.0617,0.0535,0.0528,0.0516,0.0507,0.05,0.0547,0.0548,0.0548,0.0548,0,0.0658,0.0677,0.0712,0.0783,0.0795,0.0809,0.0783,0.0793,0.0714,0.0717,0.073,0.075,0.0753,0.0756,0.0732,0.071,0.062,0.0622,0.0628,0.0499,0.0505,0.0491,0.0484,0.0551,0.055,0.055,0.055,0.055,0.0663,0.0699,0.0758,0.0812,0.0845,0.0882,0.0868,0.0874,0.0874,0.0837,0.0867,0.0844,0.0823,0.0783,0.0743,0.0648,0.0665,0.0601,0.0599,0.0596,0.0566,0.0572,0.0627,0.0627,0.0627,0.0627,0.0627,0,0.0681,0.0719,0.0778,0.0857,0.0897,0.0893,0.0907,0.0892,0.0908,0.0907,0.0919,0.0851,0.0848,0.0766,0.064,0.0606,0.0569,0.0558,0.0515,0.0515,0.0515,0.0477,0.0516,0.0516,0.0515,0.0514,0,0,0.0699,0.0755,0.0794,0.0881,0.0919,0.0918,0.091,0.0907,0.0892,0.0881,0.0832,0.0904,0.0836,0.0724,0.0677,0.0574,0.054,0.0546,0.0648,0.0605,0.0604,0.0562,0.0508,0,0,0,0,0]}],[{"header":{"parameterUnit":"m.s-1","parameterCategory":2,"la1":30.2991,"la2":30.254,"lo1":-89.0895,"lo2":-89.0444,"dy":0.0017,"dx":0.0017,"nx":28,"ny":28,"refTime":"2024-04-19T03:00:00:Z","depth":"4","parameterNumber":2,"parameterNumberName":"U-component_of_CURRENTS"},"data":[0,0,0,0,0,0,0,0,0,0,0,0,0,0,0,0,0,0,0,0,0,0,0,0,0,0,0,0,0,0,0,0,0,0,0,0,0,0,0,0,0,0,0,0,0,0,0,0,0,0,0,0,0,0,0,0,0,0,-0.0419,-0.0419,0,-0.046,-0.046,-0.0461,-0.0496,-0.0496,-0.0496,-0.0497,-0.05,-0.05,-0.05,0,0,0,0,0,0,0,0,0,0,0,0,0,-0.0396,-0.0396,-0.0419,-0.0419,-0.042,-0.046,-0.046,-0.0461,-0.0496,-0.0496,-0.0496,-0.0497,-0.05,-0.05,-0.05,0,0,0,0,0,0,0,0,0,0,0,0,0,-0.0419,-0.0397,-0.0419,-0.0441,-0.0444,-0.046,-0.046,-0.0461,-0.0496,-0.0496,-0.0497,-0.0497,-0.05,-0.05,-0.05,-0.0489,0,0,-0.0499,-0.0499,0,0,0,0,0,0,0,0,-0.0418,-0.042,-0.0438,-0.044,-0.0442,-0.0472,-0.0454,-0.0468,-0.0496,-0.0477,-0.0497,-0.0497,-0.0486,-0.0487,-0.0496,-0.0489,-0.0489,-0.0499,-0.0499,-0.0499,-0.0499,0,0,0,0,0,0,0,-0.0416,-0.0419,-0.0436,-0.0438,-0.0441,-0.0458,-0.0461,-0.0457,-0.0479,-0.0479,-0.0481,-0.0484,-0.0488,-0.0496,-0.0496,-0.049,-0.0499,-0.0499,-0.0499,-0.0498,-0.0404,-0.0402,0,0,0,0,0,0,-0.0407,-0.0417,-0.0435,-0.0437,-0.043,-0.0458,-0.0462,-0.0463,-0.048,-0.0483,-0.0483,-0.0485,-0.0496,-0.0496,-0.0496,-0.0424,-0.0499,-0.0498,-0.0498,-0.0407,-0.0404,-0.0401,0,0,0,0,0,0,-0.0407,-0.0409,-0.0433,-0.0428,-0.0432,-0.0457,-0.0459,-0.0464,-0.0479,-0.0484,-0.0486,-0.0494,-0.0497,-0.0497,-0.0481,-0.0427,-0.0498,-0.0498,-0.0409,-0.0406,-0.0403,-0.0317,0,0,0,0,0,0,-0.0406,-0.0408,-0.0411,-0.0427,-0.0432,-0.045,-0.0458,-0.0464,-0.0479,-0.0482,-0.0493,-0.0494,-0.0497,-0.0481,-0.048,-0.0427,-0.0498,-0.0412,-0.0408,-0.0404,-0.0323,-0.0311,-0.0301,0,0,0,0,0,-0.0405,-0.0407,-0.0411,-0.0413,-0.0433,-0.045,-0.0455,-0.0475,-0.0479,-0.049,-0.048,-0.0494,-0.0452,-0.048,-0.0479,-0.0425,-0.0414,-0.0409,-0.0404,-0.0328,-0.0314,-0.0302,0,0,0,0,0,0,-0.0405,-0.0411,-0.0415,-0.0421,-0.0437,-0.0456,-0.0465,-0.0476,-0.0479,-0.048,-0.048,-0.0479,-0.0439,-0.0447,-0.0478,-0.0382,-0.0429,-0.0423,-0.0371,-0.0358,-0.0347,-0.0366,-0.0498,0,0,0,0,0,-0.0402,-0.0403,-0.0417,-0.0423,-0.0428,-0.0446,-0.0456,-0.0471,-0.0474,-0.0479,-0.0469,-0.045,-0.0415,-0.0403,-0.0387,-0.0348,-0.0377,-0.0307,-0.0296,-0.0286,-0.03,-0.0291,-0.0282,-0.0384,-0.0384,-0.0384,0,0,-0.0408,-0.0407,-0.0412,-0.0422,-0.0434,-0.0442,-0.0454,-0.0473,-0.0467,-0.0475,-0.0451,-0.0422,-0.0399,-0.0344,-0.0325,-0.0346,-0.027,-0.028,-0.0272,-0.0291,-0.0285,-0.0276,-0.0267,-0.038,-0.0381,-0.0382,0,0,-0.0408,-0.0414,-0.0412,-0.0422,-0.0436,-0.0448,-0.0452,-0.0462,-0.0454,-0.0423,-0.0411,-0.0363,-0.0316,-0.0287,-0.0264,-0.0189,-0.0217,-0.0159,-0.0115,-0.0105,-0.0098,-0.0091,-0.0111,-0.0107,-0.0148,-0.0147,-0.0147,0,-0.0408,-0.0409,-0.0418,-0.0417,-0.0418,-0.0447,-0.0447,-0.0447,-0.0444,-0.0418,-0.0405,-0.0309,-0.0288,-0.0221,-0.017,-0.0166,-0.0172,-0.0166,-0.0093,-0.0088,-0.0083,-0.0105,-0.0102,-0.0143,-0.0143,-0.0144,-0.0144,0,-0.0409,-0.041,-0.041,-0.0411,-0.0417,-0.0428,-0.0425,-0.0419,-0.0393,-0.0373,-0.0296,-0.0252,-0.0193,-0.0152,-0.0127,-0.0059,-0.0078,-0.0086,-0.0133,-0.0068,-0.0094,-0.0093,-0.0136,-0.0137,-0.0139,-0.014,0,0,-0.0395,-0.0407,-0.0406,-0.04,-0.0413,-0.0416,-0.0401,-0.0382,-0.0356,-0.0312,-0.0256,-0.0155,-0.0123,-0.0095,-0.0055,-0.0024,0.0028,-0.0018,-0.002,-0.0051,0.004,0.0051,0.0052,0.0046,0.0047,0.0047,0.0007,0,-0.0387,-0.0383,-0.0388,-0.0384,-0.0379,-0.0389,-0.0365,-0.035,-0.031,-0.0265,-0.0208,-0.014,-0.0104,-0.0048,-0.0011,0.0017,0.0037,0.0038,-0.001,-0.0013,-0.002,0.0056,0.005,0.0008,0.0008,0.0009,0.0009,0,-0.0371,-0.037,-0.0364,-0.035,-0.0347,-0.0347,-0.0311,-0.0293,-0.0249,-0.0205,-0.0143,-0.0108,-0.0042,-0.0023,0.0027,0.0034,0.0048,0.0056,0.0054,0.0029,0.0002,-0.007,0.0011,0.001,0.001,0.001,0.001,0,-0.034,-0.0341,-0.0333,-0.0334,-0.0333,-0.0315,-0.0305,-0.0265,-0.0227,-0.0171,-0.0133,-0.0074,-0.0023,-0.0006,0.0037,0.0041,0.0067,0.0057,0.006,0.0059,0.0016,0.0009,0.0073,0.0073,0.0074,0.0074,0.0074,0,-0.0313,-0.0306,-0.032,-0.0317,-0.0294,-0.0286,-0.0241,-0.0222,-0.0174,-0.0135,-0.0096,-0.0055,-0.0005,0.0018,0.003,0.0057,0.0055,0.0072,0.0061,0.0055,0.0053,0.0016,0.001,0.0072,0.0072,0.0073,0.0073,0,-0.0278,-0.0292,-0.0287,-0.0287,-0.028,-0.026,-0.0219,-0.0187,-0.0143,-0.0098,-0.0079,-0.0023,0.0019,0.0037,0.0067,0.0061,0.0065,0.0068,0.0046,0.0033,0.0041,0.004,0.0055,0.0055,0.0055,0.0056,0.0056,0,-0.0262,-0.0258,-0.0269,-0.0271,-0.0272,-0.0241,-0.0219,-0.0171,-0.0141,-0.0085,-0.0072,-0.0009,0.0022,0.0056,0.0079,0.0077,0.0084,0.0057,0.0072,0.0057,0.0045,0.0044,0.0042,0.0056,0.0056,0.0056,0.0056,0,-0.0238,-0.025,-0.0255,-0.0259,-0.0249,-0.0235,-0.0204,-0.0178,-0.0132,-0.0089,-0.0046,-0.0016,0.0032,0.0067,0.0084,0.0076,0.0059,0.006,0.0059,0.0073,0.0059,0.0046,0.0045,0.0057,0.0057,0.0057,0.0057,0,-0.0227,-0.023,-0.0247,-0.0245,-0.0245,-0.0248,-0.0226,-0.0192,-0.0149,-0.0087,-0.0074,-0.0022,0.0032,0.0066,0.0066,0.0083,0.0081,0.0052,0.0052,0.0051,0.0075,0.0059,0.0057,0,0,0,0,0,-0.0211,-0.0218,-0.023,-0.0242,-0.025,-0.025,-0.0229,-0.0209,-0.0159,-0.0126,-0.0093,-0.0051,-0.0002,0.0026,0.0046,0.0054,0.0065,0.0073,0.0027,0.0063,0.0062,0.0094,0,0,0,0,0,0,-0.0204,-0.0215,-0.0227,-0.0246,-0.0253,-0.0259,-0.0253,-0.023,-0.0203,-0.0148,-0.0108,-0.0064,-0.0003,0.0,0.0047,0.0054,0.0019,0.0114,0.0113,0.0063,0.0062,0.0062,0.0095,0,0,0,0,0]},{"header":{"parameterUnit":"m.s-1","parameterCategory":2,"la1":30.2991,"la2":30.254,"lo1":-89.0895,"lo2":-89.0444,"dy":0.0017,"dx":0.0017,"nx":28,"ny":28,"refTime":"2024-04-19T03:00:00:Z","depth":"4","parameterNumber":3,"parameterNumberName":"V-component_of_CURRENTS"},"data":[0,0,0,0,0,0,0,0,0,0,0,0,0,0,0,0,0,0,0,0,0,0,0,0,0,0,0,0,0,0,0,0,0,0,0,0,0,0,0,0,0,0,0,0,0,0,0,0,0,0,0,0,0,0,0,0,0,0,0.0441,0.044,0,0.0462,0.0463,0.0463,0.0551,0.0553,0.0555,0.0556,0.0674,0.0676,0.0677,0,0,0,0,0,0,0,0,0,0,0,0,0,0.045,0.045,0.0441,0.044,0.044,0.0462,0.0463,0.0463,0.0551,0.0553,0.0555,0.0557,0.0674,0.0676,0.0678,0,0,0,0,0,0,0,0,0,0,0,0,0,0.046,0.045,0.0441,0.0483,0.0487,0.0462,0.0463,0.0464,0.0551,0.0553,0.0555,0.0558,0.0673,0.0675,0.0678,0.0644,0,0,0.0685,0.0686,0,0,0,0,0,0,0,0,0.0459,0.046,0.0477,0.048,0.0484,0.0502,0.0509,0.0527,0.055,0.0531,0.0556,0.0559,0.0621,0.0628,0.0632,0.065,0.0655,0.0685,0.0687,0.0688,0.0689,0,0,0,0,0,0,0,0.0459,0.046,0.0454,0.0477,0.0481,0.0492,0.0497,0.0513,0.0567,0.0533,0.0538,0.0533,0.0625,0.0629,0.0635,0.0657,0.0685,0.0688,0.0689,0.069,0.0736,0.0735,0,0,0,0,0,0,0.0445,0.0459,0.0453,0.0454,0.0472,0.049,0.0495,0.0498,0.0565,0.0576,0.0531,0.0537,0.0623,0.0632,0.064,0.0705,0.0688,0.069,0.0692,0.0736,0.0735,0.0735,0,0,0,0,0,0,0.0446,0.0445,0.0452,0.0453,0.0454,0.0487,0.0489,0.0497,0.0542,0.0562,0.0576,0.0572,0.0626,0.0636,0.0698,0.0707,0.0691,0.0694,0.0736,0.0736,0.0735,0.0772,0,0,0,0,0,0,0.0446,0.0445,0.0456,0.0452,0.0453,0.0469,0.0486,0.0495,0.053,0.054,0.06,0.0611,0.0628,0.0694,0.0701,0.071,0.0696,0.0736,0.0736,0.0735,0.0771,0.0772,0.0774,0,0,0,0,0,0.0446,0.0449,0.0456,0.0456,0.0463,0.047,0.0473,0.0506,0.053,0.0556,0.0602,0.0612,0.0694,0.0697,0.0704,0.0715,0.0737,0.0736,0.0735,0.077,0.0772,0.0774,0,0,0,0,0,0,0.0461,0.0457,0.0466,0.0469,0.0482,0.0484,0.0503,0.0521,0.0574,0.0603,0.0625,0.0639,0.069,0.0692,0.0694,0.0721,0.0709,0.071,0.0733,0.0735,0.0737,0.0739,0.0698,0,0,0,0,0,0.0463,0.0471,0.0468,0.0476,0.0482,0.0498,0.0509,0.0539,0.057,0.0598,0.0645,0.0675,0.068,0.0706,0.0725,0.075,0.0731,0.0752,0.0754,0.0756,0.0759,0.0721,0.072,0.0733,0.0733,0.0733,0,0,0.0466,0.0468,0.0471,0.0481,0.0493,0.0503,0.0514,0.055,0.0578,0.06,0.0682,0.0696,0.0688,0.072,0.074,0.0735,0.0745,0.0755,0.0757,0.0759,0.0721,0.0719,0.0718,0.0733,0.0733,0.0733,0,0,0.0471,0.0484,0.0491,0.0499,0.0524,0.0536,0.0553,0.0591,0.0636,0.0696,0.0702,0.0728,0.0774,0.0759,0.0749,0.0765,0.0755,0.077,0.0787,0.075,0.0749,0.0748,0.0737,0.0734,0.077,0.077,0.077,0,0.0477,0.0486,0.0496,0.0503,0.0514,0.0552,0.0569,0.0602,0.0669,0.0695,0.074,0.0768,0.078,0.0755,0.0769,0.077,0.076,0.0785,0.0753,0.0751,0.0749,0.0738,0.0735,0.0772,0.0772,0.0772,0.0772,0,0.0477,0.0494,0.05,0.0521,0.0539,0.0567,0.0599,0.0653,0.0716,0.0742,0.0787,0.0805,0.0813,0.081,0.0805,0.0781,0.0783,0.0761,0.0752,0.075,0.0739,0.0735,0.0774,0.0774,0.0773,0.0773,0,0,0.046,0.0495,0.0499,0.0515,0.0559,0.057,0.0622,0.0662,0.0688,0.077,0.079,0.081,0.0829,0.0817,0.0804,0.0783,0.0771,0.078,0.0778,0.0777,0.0715,0.0684,0.0677,0.0749,0.0748,0.0747,0.0718,0,0.0463,0.0489,0.0504,0.0534,0.0553,0.0592,0.0623,0.0669,0.0728,0.0766,0.0779,0.0801,0.0823,0.083,0.0814,0.0771,0.076,0.0782,0.071,0.0708,0.0686,0.067,0.0744,0.0715,0.0714,0.0713,0.0713,0,0.0451,0.0477,0.0512,0.0548,0.0557,0.0586,0.0641,0.0677,0.0719,0.0764,0.0791,0.08,0.0787,0.0805,0.0758,0.0777,0.076,0.0735,0.0732,0.0687,0.0669,0.0711,0.0705,0.0706,0.0706,0.0707,0.0707,0,0.0437,0.0474,0.0512,0.0523,0.0568,0.0602,0.0643,0.0693,0.073,0.0767,0.0791,0.0779,0.0791,0.0753,0.0736,0.0744,0.0681,0.067,0.063,0.0628,0.0651,0.0653,0.0637,0.0637,0.0637,0.0637,0.0638,0,0.0427,0.045,0.0516,0.0529,0.0577,0.0612,0.0668,0.0703,0.075,0.0776,0.0797,0.0804,0.0783,0.0753,0.0722,0.0669,0.067,0.0631,0.061,0.0669,0.0673,0.0649,0.0651,0.0636,0.0637,0.0637,0.0637,0,0.0404,0.0444,0.0478,0.0542,0.0575,0.0614,0.0703,0.0738,0.078,0.0811,0.0821,0.0829,0.0793,0.0758,0.0693,0.0658,0.0592,0.0577,0.0662,0.0647,0.0571,0.0575,0.0514,0.0512,0.0511,0.051,0.0509,0,0.0396,0.0421,0.0491,0.0531,0.0574,0.0649,0.0707,0.0768,0.0798,0.0819,0.082,0.0808,0.0803,0.0694,0.0658,0.058,0.0575,0.054,0.0544,0.0569,0.0555,0.0561,0.0566,0.0507,0.0507,0.0506,0.0506,0,0.0389,0.042,0.0447,0.0539,0.0611,0.0666,0.0746,0.0761,0.0808,0.0834,0.0809,0.0768,0.0733,0.0674,0.0628,0.057,0.0548,0.0526,0.0529,0.0532,0.056,0.0549,0.0555,0.0502,0.0502,0.0503,0.0503,0,0.0386,0.0406,0.0467,0.0544,0.0621,0.0676,0.071,0.0748,0.0776,0.0787,0.0777,0.075,0.0749,0.0669,0.0613,0.0561,0.0545,0.051,0.0513,0.0517,0.0525,0.056,0.0479,0,0,0,0,0,0.0395,0.0432,0.0486,0.0561,0.0631,0.0682,0.0733,0.0755,0.0785,0.0763,0.0769,0.0729,0.0659,0.0638,0.0579,0.0589,0.0537,0.0515,0.0498,0.0477,0.0482,0.0487,0,0,0,0,0,0,0.0403,0.0452,0.048,0.0571,0.0626,0.0703,0.073,0.0743,0.0721,0.0738,0.0706,0.07,0.0641,0.0702,0.0578,0.0565,0.0538,0.0495,0.0492,0.0474,0.0479,0.0483,0.0489,0,0,0,0,0]}]]